User: anonymous   Login
Location: Unspecified
(0.0000°N, 0.0000°E)
Time: 07:52:06
(UTC+01:00)
Language:

ARIANE 5 R/B - Orbit

View from above orbital plane
View from above orbital plane
View from above satellite
View from above satellite

Ground track
Ground track

The orbit data is extracted from the following two-line orbital elements,

1 28379U 04027B   15057.51611646 -.00000373  00000-0  90860-3 0  9990
2 28379 006.7099 256.7145 7295549 229.3408 019.2468 02.07924403 80628
Epoch (UTC): 26 February 2015 12:23:12
Eccentricity: 0.7295549
inclination: 6.7099°
perigee height: 634 km
apogee height: 38468 km
right ascension of ascending node: 256.7145°
argument of perigee: 229.3408°
revolutions per day: 2.07924403
mean anomaly at epoch: 19.2468°
orbit number at epoch: 8062

The dashed part of the orbit path shows where the satellite is in the earth's shadow,  

DLR